User: anonymous   Login
Location: Trebic
(49.2170°N, 15.8830°E)
Time: 20:21:39
(UTC+02:00)
Language:

deb Explorer IX - Orbit

View from above orbital plane
View from above orbital plane
View from above satellite
View from above satellite

Ground track
Ground track

The orbit data is extracted from the following two-line orbital elements,

1    85U 61004C   19195.63472709  .00001105  00000-0  25271-3 0  9994
2    85  38.7741 308.0155 0398404  43.1010 320.0222 14.19908700882899
Epoch (UTC): 14 July 2019 15:14:00
Eccentricity: 0.0398404
inclination: 38.7741°
perigee height: 538 km
apogee height: 1112 km
right ascension of ascending node: 308.0155°
argument of perigee: 43.1010°
revolutions per day: 14.19908700
mean anomaly at epoch: 320.0222°
orbit number at epoch: 88289

The dashed part of the orbit path shows where the satellite is in the earth's shadow,  

DLR